CZ-4B DEB, 43660

Orbit data source: Space-Track

CZ-4B DEB, 43660 is space debris in SSO originally from a launch on Wed, 24 Oct 2018 UTC launched from the Taiyaun Space Center, China (TSC). Debris objects in space refer to the collection of defunct objects orbiting the Earth. Examples of debris include non-operational satellites, rocket bodies, and fragments generated from explosions, collisions, or faulty payload assembly.

Loading next visibility...
Identifier
43660, 2018-081D
Orbit
SSO
Last TLE update
23 hours ago
Origin
Manufacturer
SAST
Mission
Spacecraft
Bus & Motor
Unknown
Mass
Unknown
Launch date (UTC)
2018-10-24 (7 years ago)
Launch vehicle
Unknown
Launch site
Taiyaun Space Center, China (TSC)
Object type
Payload
Rocket body
Debris
Shape & HBR
Unknown
Radar Cross Section
Small (<0.1 m²)

Expand to show TLE details & history

TLE from 23 hours ago
0 CZ-4B DEB
1 43660U 18081D   25128.31138427  .00000194  00000-0  19103-3 0  9995
2 43660  99.1484 158.8923 0013455  19.8262 340.3417 13.90457191331647
Epoch: 2025-05-08T07:28Z
Definitive object data (Epoch: 2025-05-08T07:28:23.6Z)
Latitude
-0.00006°
Longitude
-179.58972°
Altitude
920.632 km
Speed
7.396 km/s
True Right ascension
10h 35m 34s
True Declination
0° 00' 00"
Sunlit
Object was in daylight at TLE epoch
Visualization TLE readout
Latitude
23.29248°
Longitude
177.38049°
Altitude
920.029 km
Speed
7.399 km/s
Apparent Right ascension
07h 21m 23s
Apparent Declination
-11° 47' 33"
Sunlit
Object is in daylight
Visualization observer readout
Local Sidereal Time
14:10:56
Azimuth
268.683° W
Elevation
-16.991°
Doppler factor
1
Orbital elements
Apogee altitude
934.074 km
Perigee altitude
914.423 km
Semi-major axis
7,302.386 km
Eccentricity
0.0013455
Inclination
99.1484°
RAAN
158.8923°
Arg. of periapsis
19.8262°
True anomaly
340.28975°
Mean anomaly
340.3417°
Eccentric anomaly
340.31573°
Mean motion
3.47813 °/min
BSTAR
0.00019103
Orbital period
103.5 mins
Loading maneuver chart data...
Loading SW <> Apogee altitude chart data...
Loading historical data...
Loading historical data...
Loading historical data...
Loading historical data...
Loading historical data...
Loading historical data...
Loading historical data...

CZ-4B DEB Visibility forecast

Observer location: undefined°, undefined°

Span
Click to sort rows by Start time (UTC) header in descending order
Start Az.
Max El. time (UTC)
Max El. Az.
Max El.
End time (UTC)
End Az.
5 mins2025-05-09 13:28:10.665Z63.34° ENE2025-05-09 13:31:10.665Z96.753° ESE14.793°2025-05-09 13:33:10.665Z118.374° SE
10 mins2025-05-09 15:09:10.665Z7.789° NNE2025-05-09 15:13:10.665Z306.909° NW43.525°2025-05-09 15:19:10.665Z203.79° SW
8 mins2025-05-10 01:04:10.665Z119.934° SE2025-05-10 01:08:10.665Z58.327° ENE29.044°2025-05-10 01:12:10.665Z8.057° NNE
8 mins2025-05-10 02:46:10.665Z207.707° SW2025-05-10 02:50:10.665Z268.025° W29.116°2025-05-10 02:54:10.665Z321.498° NNW
|